This is the latest recevied weather packets stored in our database for station/object WD9EKA. If no packets are shown the sender has not sent any weather packets the latest 10 day(s).
| Time | Temp. | Humidity | Pressure | Rain* | Wind** | Luminosity | Snow |
|---|---|---|---|---|---|---|---|
| 1777830393 | 16.11° C | 58% | 1011.5 hPa | 0 mm | - | - | - |
| 1777830073 | 16.11° C | 57% | 1011.9 hPa | 0 mm | - | - | - |
| 1777829754 | 16.11° C | 62% | 1011.6 hPa | 0 mm | - | - | - |
| 1777829433 | 15.56° C | 58% | 1012 hPa | 0 mm | - | - | - |
| 1777829114 | 15° C | 60% | 1012.3 hPa | 0 mm | - | - | - |
| 1777828794 | 15.56° C | 63% | 1012.6 hPa | 0 mm | - | - | - |
| 1777828474 | 15.56° C | 58% | 1012.5 hPa | 0 mm | - | - | - |
| 1777828154 | 15.56° C | 59% | 1012.6 hPa | 0 mm | - | - | - |
| 1777827834 | 15° C | 64% | 1012.5 hPa | 0 mm | - | - | - |
| 1777827514 | 15° C | 59% | 1012.8 hPa | 0 mm | - | - | - |
| 1777827194 | 14.44° C | 61% | 1012.8 hPa | 0 mm | - | - | - |
| 1777826874 | 14.44° C | 63% | 1012.9 hPa | 0 mm | - | - | - |
| 1777826554 | 15° C | 61% | 1013 hPa | 0 mm | - | - | - |
| 1777826234 | 14.44° C | 61% | 1013.1 hPa | 0 mm | - | - | - |
| 1777825914 | 14.44° C | 60% | 1013.2 hPa | 0 mm | - | - | - |
| 1777825593 | 14.44° C | 61% | 1013.3 hPa | 0 mm | - | - | - |
| 1777825274 | 14.44° C | 61% | 1013.4 hPa | 0 mm | - | - | - |
| 1777824954 | 14.44° C | 62% | 1013.5 hPa | 0 mm | - | - | - |
| 1777824634 | 13.89° C | 63% | 1013.6 hPa | 0 mm | - | - | - |
| 1777824314 | 13.89° C | 64% | 1013.3 hPa | 0 mm | - | - | - |
| 1777823994 | 14.44° C | 62% | 1013.4 hPa | 0 mm | - | - | - |
| 1777823674 | 13.89° C | 59% | 1013.5 hPa | 0 mm | - | - | - |
| 1777823354 | 13.89° C | 63% | 1013.9 hPa | 0 mm | - | - | - |
| 1777823034 | 13.33° C | 68% | 1013.4 hPa | 0 mm | - | - | - |
| 1777822713 | 13.33° C | 66% | 1013.7 hPa | 0 mm | - | - | - |
* Rain latest hour (hover to see other rain measurements)
** Current wind speed in m/s (hover to see current wind gust speed)